Theta_e
311 311 311 312 311 311 311 311 311 310 307 305 306 306 305 305 304 304 304 303 303 303 302 303 303 303 303 304 304 305 306 307 310 313 317 321 315 316 315 316 315 319 324 330 345 352 354 353 350 352 348 347 353 352 353 354 356 360 367 367 363 364 361 358 354 351 352 346 351 355 354 361 360 357 355 354 355 356 356 356 356 355 354 353 353 353 353 354
311 311 311 311 311 311 311 311 309 306 304 306 307 307 305 305 305 305 305 304 304 303 303 303 302 303 304 304 305 305 308 310 314 317 321 318 317 316 314 314 315 320 326 339 349 350 352 353 350 352 350 351 356 356 356 356 358 363 365 364 364 366 361 355 351 350 346 344 351 354 355 359 359 357 355 358 358 356 359 359 357 358 355 353 353 354 354 354
311 311 311 311 311 311 309 307 307 307 308 308 307 306 305 305 306 306 306 306 305 305 304 303 303 304 304 305 306 306 311 315 321 325 322 319 323 320 318 315 314 319 324 336 344 345 349 350 349 353 353 355 359 359 360 360 362 365 365 367 365 360 356 353 350 351 347 344 350 354 355 356 357 356 355 358 358 357 360 360 360 360 357 355 353 354 354 353
311 311 311 311 310 309 307 308 309 310 309 307 306 305 305 305 306 306 306 307 306 305 304 304 304 304 304 306 306 309 314 321 322 318 320 323 323 321 323 319 316 320 322 327 335 342 346 347 349 352 355 358 357 358 362 362 363 364 367 370 365 356 357 357 351 352 350 344 349 355 355 355 355 355 355 356 358 360 359 357 359 359 356 356 354 353 354 354
311 311 310 310 310 309 309 310 310 309 307 306 306 305 305 305 305 306 307 307 306 306 305 305 305 305 306 306 309 314 318 321 316 318 321 322 320 319 324 321 318 322 325 330 337 342 344 346 349 350 354 358 355 355 359 359 359 361 364 365 361 357 358 356 350 350 348 343 349 354 355 355 354 355 354 355 361 361 356 354 355 356 355 355 354 354 354 354
310 310 310 310 310 310 310 310 309 307 306 305 305 305 305 305 305 306 306 307 307 306 306 306 306 306 307 307 312 318 320 313 316 319 319 322 318 317 324 322 322 327 328 335 340 341 345 347 350 353 353 356 356 356 355 354 355 359 359 356 356 357 357 354 348 347 346 344 348 352 353 354 355 356 354 354 358 357 353 353 353 353 354 354 354 354 354 354
310 310 310 310 310 310 310 310 309 307 306 305 305 305 304 305 305 306 307 307 307 307 308 308 307 307 307 310 317 321 322 318 317 318 318 319 316 319 325 322 325 332 332 335 338 340 345 348 352 354 352 354 355 354 352 351 352 357 357 352 351 350 350 349 345 344 345 345 346 351 355 355 356 357 355 353 356 357 355 352 352 353 353 354 354 353 354 354
310 310 310 310 310 310 310 310 309 307 306 305 304 304 304 305 306 307 307 307 308 308 308 308 308 309 307 313 322 320 321 322 315 317 317 316 318 322 325 325 330 333 332 335 337 340 344 348 351 352 353 354 352 350 350 350 349 353 354 351 350 348 348 346 344 343 342 343 345 353 357 355 354 355 355 354 355 357 355 353 353 353 353 354 354 354 354 353
310 310 309 310 310 310 310 309 308 306 305 304 304 304 304 306 306 307 308 308 308 308 309 309 310 309 308 315 322 313 316 319 315 320 318 318 321 323 324 327 331 331 333 336 336 338 342 346 348 348 350 350 345 345 348 349 350 351 350 349 349 348 348 346 345 342 340 340 343 353 357 353 352 355 357 355 355 355 353 353 354 353 354 354 354 354 354 353
309 309 309 309 309 309 308 307 306 305 304 304 303 304 305 306 307 308 308 308 309 308 309 310 311 311 311 318 320 310 316 317 319 322 318 321 322 322 323 325 328 331 336 338 335 338 340 342 345 342 340 340 339 339 341 344 347 346 343 344 347 347 347 345 343 340 336 338 343 349 354 353 351 355 358 356 355 354 354 355 354 354 355 354 354 353 353 354
309 309 309 309 308 308 308 306 305 304 304 304 304 304 305 307 308 308 309 310 310 310 311 311 312 311 313 321 320 310 317 318 321 321 319 323 322 321 321 323 328 331 335 335 334 337 338 338 339 337 335 334 333 335 337 338 339 338 336 337 337 336 336 335 334 332 329 337 344 343 347 349 348 352 356 355 355 354 356 356 354 355 355 354 354 353 353 353
309 309 309 308 308 308 308 306 304 303 303 304 304 305 307 307 308 310 312 314 314 314 312 313 312 312 316 324 322 312 314 316 320 321 323 324 323 321 319 320 324 328 333 332 332 335 335 335 333 334 336 333 332 334 335 335 334 333 332 330 329 326 326 325 324 326 329 338 343 340 340 343 346 350 355 355 354 355 356 356 355 355 355 354 354 353 353 353
309 308 308 308 308 308 307 305 304 303 303 304 304 307 307 307 310 315 317 318 318 316 313 314 313 313 319 323 318 313 313 316 318 318 320 320 317 319 322 322 321 325 329 328 330 331 330 330 331 333 332 332 334 333 332 331 329 332 330 324 324 323 323 326 327 330 335 338 341 339 335 338 344 349 357 356 354 356 356 357 356 355 356 355 354 354 354 353
308 308 308 307 308 308 307 305 303 303 303 303 306 307 307 310 316 317 317 317 317 315 313 314 313 314 321 319 312 314 312 312 315 314 316 315 314 317 323 326 325 324 325 326 327 328 328 326 327 328 328 332 334 331 331 329 327 331 329 324 323 319 321 328 333 338 341 338 341 340 333 338 342 346 356 355 353 357 357 357 356 355 356 355 355 354 354 353
307 307 307 307 307 307 306 304 303 303 303 304 307 306 309 315 317 315 315 315 315 316 315 315 315 318 322 318 314 317 316 314 314 314 313 314 317 321 324 327 329 327 326 326 324 325 327 325 325 327 328 331 330 328 330 329 327 327 324 323 323 318 320 326 331 341 345 340 342 341 335 340 342 346 355 355 354 357 357 358 357 355 356 354 355 355 353 354
306 306 306 307 307 306 304 303 303 303 302 305 306 308 313 317 315 314 315 314 314 315 316 317 317 321 324 316 315 318 320 320 318 318 317 315 316 319 323 326 330 331 329 327 325 325 326 326 328 329 328 329 330 329 327 325 326 329 324 321 321 318 320 324 326 336 341 343 343 340 342 347 348 351 355 354 354 357 357 358 357 355 356 355 355 355 354 354
307 305 306 306 306 305 304 303 303 302 303 306 306 311 317 317 315 317 318 316 317 318 319 320 319 322 323 313 316 318 319 321 321 323 323 321 317 316 322 326 328 329 327 326 324 324 326 327 330 330 327 328 331 329 323 318 321 327 324 319 320 319 318 320 324 331 338 345 345 342 345 350 355 356 355 355 354 356 357 357 357 356 355 355 354 354 354 354
307 306 306 306 304 304 303 303 303 302 304 306 307 314 319 318 318 319 319 320 322 322 322 322 319 322 320 315 319 320 319 320 321 323 324 325 322 317 320 325 326 327 326 326 325 324 325 327 328 329 328 328 329 326 318 318 323 325 321 318 318 319 319 319 321 327 336 343 346 345 344 348 356 356 355 355 354 355 357 356 356 356 355 355 354 354 354 354
307 306 305 305 304 304 303 303 302 302 304 306 309 314 318 318 319 321 320 318 318 321 325 326 322 319 317 318 318 319 318 320 321 322 323 325 323 318 318 322 325 327 328 329 327 325 325 325 325 325 326 327 328 324 321 325 328 326 324 320 318 317 319 322 323 326 333 341 346 346 342 345 357 358 356 355 354 355 356 357 356 355 355 354 354 354 355 354
306 306 305 304 304 303 303 303 302 303 304 306 310 311 312 313 317 319 314 309 310 313 315 320 322 322 321 319 318 319 319 320 322 323 324 324 321 318 318 321 324 326 328 331 328 324 325 326 324 323 325 326 327 326 326 328 328 326 324 321 319 318 318 321 325 327 329 338 347 349 343 345 355 357 357 354 355 356 355 357 356 356 355 354 354 354 354 355
304 305 304 304 304 303 303 302 302 304 304 306 309 310 308 308 312 312 308 307 308 309 310 311 315 319 320 319 318 319 319 320 322 322 323 323 320 320 321 321 323 324 327 330 326 322 324 327 325 324 326 327 327 328 327 327 327 326 324 321 320 318 318 321 324 325 330 336 344 351 345 344 353 355 356 355 355 356 356 356 356 356 355 354 354 354 354 354
304 304 304 304 304 303 303 302 303 304 303 305 309 309 307 306 307 308 306 308 309 308 310 310 311 313 314 315 316 317 317 319 321 319 320 322 320 323 324 320 322 324 324 327 326 322 322 325 325 324 327 328 328 328 327 327 326 325 323 320 318 319 320 322 324 325 328 331 339 351 345 342 350 354 355 356 356 355 354 355 355 355 355 355 354 354 353 354
303 303 303 303 303 303 303 302 303 304 302 305 307 307 307 305 306 307 306 308 310 309 310 310 311 312 312 313 314 315 316 317 319 318 319 322 322 324 323 320 321 324 323 325 326 323 320 321 324 324 325 327 327 327 326 325 325 324 322 318 316 320 319 319 323 325 325 328 336 344 344 346 353 357 357 354 354 356 353 354 354 353 355 354 353 353 353 354
303 303 303 303 303 303 303 302 303 303 303 305 307 306 306 305 306 308 308 311 313 311 311 312 311 312 313 313 313 315 316 316 318 318 320 323 323 322 321 320 322 323 323 324 325 324 322 322 323 323 324 325 324 325 325 324 322 322 323 319 318 321 319 320 324 326 325 327 335 337 336 348 361 359 359 355 353 356 354 354 355 353 354 353 352 352 352 353
303 303 303 303 303 302 302 302 303 304 304 305 307 305 305 305 306 308 310 314 316 313 312 312 312 312 313 313 314 315 316 317 318 318 320 323 322 323 322 320 321 322 323 323 323 324 324 323 323 322 324 324 323 324 324 323 321 320 323 322 321 322 322 322 323 323 320 319 331 332 323 339 361 355 355 358 355 356 355 354 355 354 354 353 353 353 351 352
303 303 303 303 303 302 303 304 304 304 305 305 306 305 306 306 307 308 310 314 319 316 315 314 314 314 313 314 315 316 317 318 317 317 320 322 322 323 324 321 321 322 322 323 323 322 323 323 322 322 323 324 324 323 323 324 320 317 323 325 323 323 322 321 320 319 317 318 331 331 321 332 350 350 351 357 357 357 356 355 354 354 354 352 353 352 351 351
303 303 303 303 303 303 305 306 305 305 306 305 306 307 307 308 308 309 311 317 322 320 316 314 313 315 313 314 315 316 319 318 316 317 319 322 322 322 324 323 321 321 321 323 321 321 324 323 322 323 323 323 322 320 322 324 319 318 325 327 325 325 322 321 320 317 319 323 325 329 328 326 330 342 351 353 356 358 356 356 354 353 353 352 352 351 351 350
303 303 303 303 303 303 304 306 305 305 306 305 307 307 308 309 309 311 313 320 326 322 318 314 313 315 313 314 315 316 318 316 316 317 317 321 323 322 323 323 321 322 322 322 318 320 324 323 322 323 322 321 321 321 324 324 321 321 325 325 325 325 323 322 321 317 321 320 313 320 329 319 320 342 353 349 354 357 357 356 353 353 352 351 351 351 350 350
302 303 303 303 302 303 304 305 305 305 305 306 307 308 309 309 310 313 316 322 324 320 318 314 314 313 312 313 314 314 314 314 315 315 316 321 322 322 324 322 321 322 322 321 321 323 324 322 322 322 322 322 321 324 325 322 322 324 323 323 323 322 322 324 322 318 318 317 312 315 321 315 317 335 345 344 348 352 355 355 352 352 351 350 351 350 349 350
302 303 303 303 303 303 305 306 305 305 305 306 307 308 309 310 313 316 321 322 320 318 317 316 315 313 313 313 313 313 313 313 315 314 316 320 321 320 321 322 323 323 322 322 322 324 325 324 324 323 322 322 323 324 324 322 323 324 324 323 322 322 324 327 326 320 315 314 313 314 317 316 315 323 336 342 345 348 352 353 352 351 350 350 350 349 349 349
302 302 302 302 303 304 305 306 305 305 305 305 308 310 310 313 317 321 324 320 316 319 319 318 316 315 316 315 312 314 314 313 314 314 316 319 320 321 321 322 323 322 321 321 321 323 323 324 326 326 324 322 323 323 322 323 322 323 325 321 320 323 321 319 319 317 313 312 315 316 318 316 312 317 333 342 343 345 347 349 350 350 349 348 348 348 348 348
302 302 302 302 303 304 306 306 305 305 305 306 310 312 311 312 315 318 321 318 316 318 318 317 316 315 317 316 315 315 314 314 315 314 315 317 320 322 321 323 322 320 318 317 319 320 321 324 325 326 327 324 323 323 321 321 321 322 323 319 317 318 317 315 315 316 315 316 321 321 317 315 314 323 337 342 341 342 343 346 347 348 348 347 346 347 347 347
302 302 302 303 304 304 305 305 304 304 305 307 311 314 312 314 316 315 316 316 316 315 316 316 315 315 316 317 318 316 314 315 315 315 315 315 319 321 322 324 323 322 322 319 317 317 319 323 323 322 325 325 323 322 319 319 320 319 319 316 315 315 315 316 317 317 316 316 320 321 317 315 318 326 335 336 339 341 340 342 344 345 347 346 345 345 345 346
302 302 302 303 305 304 304 304 304 304 305 309 313 314 313 314 318 318 315 315 315 314 315 316 316 316 317 318 317 315 314 315 314 315 315 315 318 320 321 322 321 326 328 321 317 317 316 319 322 321 323 326 325 323 323 324 322 319 320 319 316 316 317 317 316 315 316 316 316 317 317 317 317 326 335 329 332 340 339 340 342 343 344 344 344 344 343 345
302 302 302 303 304 304 303 304 304 304 307 310 313 313 313 313 315 316 316 316 315 314 315 315 315 317 319 319 316 315 316 317 316 314 314 316 317 318 321 322 321 324 325 319 318 319 315 317 325 322 322 325 325 325 325 326 321 318 321 319 315 318 318 316 318 319 317 315 316 317 321 326 327 333 339 330 328 338 339 340 341 340 343 342 343 344 343 344
302 302 302 303 304 303 303 304 304 304 308 312 313 313 312 311 312 314 315 315 314 314 315 316 317 319 320 321 318 316 316 316 316 315 314 316 317 319 320 321 322 322 322 321 321 320 315 318 325 322 322 325 325 326 324 324 322 319 317 316 317 321 318 314 316 320 315 312 318 320 321 325 327 330 339 334 330 336 339 341 341 340 342 342 342 343 342 342
303 303 303 303 304 303 303 304 304 306 310 314 315 315 313 311 312 313 314 314 313 315 316 318 320 318 319 320 317 315 316 317 316 316 317 316 316 317 319 321 321 320 321 320 321 323 318 318 324 322 322 322 323 326 325 323 325 320 315 317 319 319 319 317 314 314 313 313 318 319 316 317 318 326 343 340 333 336 338 341 342 341 342 341 342 343 341 341
303 303 304 304 303 303 303 304 304 307 313 315 316 317 316 315 314 313 314 313 314 315 316 317 319 317 317 319 317 315 316 318 317 317 319 319 316 315 316 319 319 317 319 318 318 324 320 316 321 324 322 322 322 323 322 322 323 320 320 322 320 317 314 316 315 314 314 315 316 317 318 318 317 326 341 337 335 340 339 340 342 341 342 342 341 342 341 341
303 304 306 304 302 303 304 305 306 310 315 316 316 316 316 316 315 314 313 313 315 316 316 316 317 317 317 318 316 314 315 317 317 317 319 319 316 314 313 315 316 316 318 318 318 324 322 316 318 322 322 321 322 321 318 318 322 321 321 320 321 319 314 315 317 315 315 317 317 314 313 315 321 334 342 339 341 341 337 340 343 340 341 342 341 342 342 342
303 305 306 303 302 304 304 306 310 314 317 317 316 314 312 312 313 312 311 311 314 316 317 316 316 316 317 316 314 314 314 316 317 317 318 318 316 314 313 313 314 316 318 319 320 322 321 319 316 320 322 318 319 320 319 319 320 319 318 315 315 317 316 315 315 315 316 318 318 314 310 315 332 345 345 344 346 341 337 340 341 340 341 341 341 342 342 342
303 304 306 302 302 303 305 308 310 312 313 313 311 310 308 310 311 310 309 310 311 313 315 315 315 315 315 315 314 314 316 317 317 317 317 316 316 315 313 312 312 315 320 326 329 326 325 321 315 315 316 314 317 322 322 323 323 320 319 317 315 315 315 314 314 315 315 316 320 318 309 314 334 342 341 347 347 341 339 338 339 340 340 340 342 341 342 343
302 304 304 302 303 303 306 309 307 307 309 308 307 307 308 309 310 309 309 309 309 311 312 313 314 314 313 314 315 316 317 319 318 318 317 315 314 313 312 311 312 317 322 327 329 326 326 325 317 315 317 318 321 324 321 322 323 322 322 321 319 318 314 312 312 315 314 314 320 320 312 318 338 340 337 345 349 344 341 339 341 341 338 340 342 340 342 344
302 303 303 302 303 303 306 309 306 306 307 307 307 307 307 308 308 308 309 308 308 309 310 310 312 312 312 313 315 315 317 319 318 317 317 315 312 311 312 311 312 317 323 326 327 325 326 326 320 318 322 322 323 324 322 323 322 320 321 322 320 318 316 315 319 321 317 313 316 317 311 319 340 344 336 337 342 342 339 338 341 342 338 338 340 341 344 344
302 303 304 304 303 304 306 307 305 306 307 306 306 306 306 307 307 308 308 308 309 309 308 309 310 310 310 312 314 314 315 318 317 315 314 314 313 312 311 311 312 316 322 326 325 322 325 328 322 317 318 317 318 320 320 320 321 320 322 323 320 321 320 319 323 322 315 313 315 315 311 319 342 350 339 336 338 337 336 335 337 340 340 340 340 341 345 345
303 303 305 304 303 304 306 305 304 305 306 306 306 305 305 306 306 307 308 308 309 308 308 308 308 309 310 311 313 312 312 314 315 314 312 312 313 312 311 312 312 313 318 323 321 319 325 330 324 318 318 317 316 320 320 320 321 321 323 323 322 323 319 317 317 314 314 319 316 312 315 328 345 344 333 334 338 337 339 340 338 339 341 342 343 345 348 351
304 303 303 303 304 305 305 304 304 304 305 306 306 305 305 305 305 306 308 309 308 308 308 308 309 310 309 310 312 311 311 312 312 313 313 311 311 311 311 312 312 313 319 319 318 320 327 332 328 323 323 322 321 324 325 324 322 319 319 321 322 323 321 319 315 311 319 324 315 316 325 325 325 329 330 335 338 336 339 341 341 345 345 343 343 345 349 352
304 303 303 304 305 305 305 303 304 304 305 306 306 306 305 305 306 307 307 308 308 307 308 309 309 309 309 309 310 311 311 312 311 312 312 310 311 310 310 311 312 316 318 315 316 324 328 329 328 325 325 324 323 324 323 323 324 321 320 320 321 324 323 319 315 316 326 322 311 325 340 323 318 331 336 338 342 338 340 339 336 345 349 344 342 343 345 348
304 304 304 305 305 305 304 303 304 304 305 305 305 306 305 306 306 307 307 307 306 307 309 311 310 309 309 308 309 311 312 313 313 312 311 311 312 311 310 311 312 314 313 311 314 322 326 327 327 323 321 321 320 321 321 322 325 323 322 320 319 322 322 317 317 322 327 319 312 329 341 325 326 341 338 340 346 339 339 337 332 338 344 344 344 347 348 347
304 304 305 304 304 305 304 303 304 305 305 305 306 306 305 306 306 306 305 306 306 307 308 310 310 309 309 308 308 311 312 312 314 313 312 312 311 310 311 313 312 311 310 310 312 318 323 329 328 321 319 321 320 321 323 322 323 322 322 321 319 321 321 319 322 324 325 321 320 333 340 330 329 336 335 338 342 337 338 338 333 336 341 341 341 345 347 345
304 304 304 304 304 304 304 304 304 305 304 305 307 306 305 305 305 305 305 305 306 307 307 308 308 308 308 308 308 309 309 310 312 312 311 312 311 311 312 314 312 310 310 310 313 316 320 325 325 320 321 322 320 321 322 320 322 323 322 322 320 319 320 319 320 323 324 323 322 329 334 332 333 338 337 333 332 331 335 338 339 343 345 342 340 340 342 344
304 304 304 304 304 304 305 305 304 305 305 305 306 306 304 304 304 304 305 305 306 307 306 306 307 307 307 308 308 308 308 308 310 310 310 311 311 310 311 312 311 310 312 312 313 316 319 323 325 323 323 323 321 321 320 319 322 323 321 323 322 318 319 319 320 324 323 323 324 324 323 327 334 340 336 331 332 334 335 341 349 357 358 354 351 351 351 350
303 304 304 304 304 304 305 305 304 305 305 305 305 305 304 304 304 304 305 306 306 306 306 306 306 307 308 308 308 308 308 308 309 310 309 309 310 309 309 310 309 310 312 313 313 317 320 322 323 323 325 327 322 318 320 322 323 320 318 323 323 320 321 319 321 326 325 323 323 320 320 327 334 337 334 331 331 332 335 343 352 367 378 368 359 359 358 351
Wind_Speed
23 24 24 24 24 24 25 25 25 24 26 28 27 26 25 25 26 26 25 24 24 23 23 23 22 21 22 22 22 22 23 23 21 12 10 22 31 27 22 18 11 16 19 16 24 24 16 13 14 17 13 8 3 3 6 4 2 2 2 1 2 3 3 4 4 4 3 2 6 9 10 12 9 6 4 6 5 6 7 2 4 4 5 10 16 26 29 27
24 24 25 25 25 25 25 25 26 28 29 29 27 26 27 27 28 27 26 25 24 24 23 23 21 20 20 20 20 20 22 20 17 13 21 26 25 26 26 25 17 17 21 24 30 25 16 11 13 14 8 5 3 4 6 5 4 3 2 2 4 4 4 4 4 4 0 1 7 8 8 11 11 9 5 5 6 8 7 3 5 7 8 12 20 28 28 27
24 25 25 26 26 26 27 27 28 29 28 28 28 28 29 29 29 29 28 26 25 24 24 23 21 19 19 18 18 17 17 14 10 12 17 13 8 15 20 24 22 22 22 26 32 29 21 15 16 12 5 4 3 4 7 5 4 4 3 3 6 5 5 6 5 5 4 3 8 7 6 6 9 9 5 6 9 8 7 7 8 8 10 13 17 23 26 25
25 25 26 26 27 27 28 28 28 28 28 28 29 30 30 30 31 30 28 27 26 25 24 23 20 18 17 16 15 14 11 8 5 7 5 4 6 7 9 22 25 25 23 26 30 29 26 19 15 11 5 4 2 4 6 6 4 3 5 5 5 3 5 8 6 6 6 5 9 7 5 4 6 7 6 10 9 5 8 11 14 15 16 17 17 20 24 23
26 26 26 27 27 27 28 28 28 29 30 31 31 32 32 32 32 30 29 27 27 25 24 23 19 17 16 13 11 9 5 3 5 5 2 4 11 14 6 21 27 28 26 27 26 25 25 18 11 8 4 4 4 4 5 8 5 2 7 7 6 3 5 7 4 5 5 3 7 8 8 7 6 6 8 14 11 8 11 14 15 19 20 20 20 20 21 19
27 26 26 27 27 28 28 28 30 31 32 34 33 34 35 35 33 31 30 28 27 25 23 22 18 15 14 10 5 3 0 2 8 6 5 12 19 19 6 22 29 29 29 28 24 20 18 14 10 7 5 4 6 6 4 9 8 4 5 6 8 6 8 10 2 5 5 3 6 8 8 9 9 7 10 16 11 4 7 12 12 16 20 22 21 19 19 18
26 26 26 27 27 28 29 29 30 31 34 35 35 37 37 36 34 32 31 29 27 24 22 20 17 14 12 6 0 0 1 7 17 16 15 19 20 14 6 27 32 30 29 25 19 15 13 13 11 7 6 4 5 7 4 4 8 8 7 6 7 7 10 12 8 5 6 6 7 7 7 10 14 9 9 15 9 2 5 10 11 13 18 21 19 18 18 18
26 27 27 27 28 29 29 29 31 33 36 37 38 40 39 37 35 34 31 28 26 23 21 18 15 12 8 2 1 1 1 13 24 21 18 16 10 2 17 30 31 30 28 24 19 15 13 13 12 7 5 6 4 5 5 3 5 9 9 6 6 7 11 11 10 9 6 7 5 8 10 14 16 9 10 16 7 5 10 12 12 14 16 18 18 19 17 16
28 29 29 29 29 30 31 31 33 36 38 39 41 41 39 38 36 34 30 27 25 22 20 16 13 8 4 1 1 3 6 13 16 11 11 9 5 12 26 31 31 28 24 24 22 18 13 11 12 8 5 7 4 2 5 4 5 8 9 8 8 10 11 10 9 10 8 5 6 10 12 14 12 6 7 12 6 8 12 13 14 15 16 16 16 18 17 17
29 29 30 31 31 32 33 34 36 39 41 43 43 41 41 39 36 32 30 29 26 23 20 14 10 5 4 3 3 4 7 4 0 3 1 5 13 21 27 29 34 29 21 20 19 16 10 10 12 7 3 4 5 5 4 4 3 5 6 9 11 12 11 9 9 11 8 3 10 12 13 13 10 6 6 5 9 12 13 14 14 15 16 16 15 15 16 16
30 30 31 32 32 33 34 37 40 42 44 45 44 43 41 37 34 33 32 29 25 22 17 11 7 8 7 3 4 6 5 3 4 6 7 7 16 22 24 28 33 28 21 16 16 21 15 14 14 5 1 2 3 4 5 6 4 6 6 9 12 10 10 9 9 11 5 4 11 13 9 8 8 8 8 7 12 14 15 15 15 15 14 14 16 14 12 12
30 30 31 32 33 34 35 39 42 45 46 45 45 42 38 35 34 32 29 25 21 17 12 10 10 13 7 2 8 15 8 5 6 7 9 8 9 11 15 25 31 27 24 15 14 26 22 19 18 7 5 3 2 2 3 6 4 6 5 7 11 7 8 10 8 7 4 4 9 10 3 4 10 11 8 11 13 15 16 15 15 15 12 12 14 12 11 12
31 31 31 32 34 33 36 40 44 46 46 46 45 39 36 35 31 25 21 18 14 10 9 12 14 15 7 1 11 18 14 11 10 7 8 7 6 7 11 19 27 27 25 20 19 28 22 19 21 10 5 5 3 2 2 2 2 3 2 3 6 6 7 7 3 4 5 4 10 12 1 6 13 10 9 13 14 15 14 14 14 13 11 12 12 11 11 12
32 33 32 33 33 33 37 42 46 46 47 47 41 36 36 31 22 17 15 12 7 4 8 13 17 15 5 6 10 11 15 18 17 19 21 18 11 9 11 16 24 26 23 18 15 20 19 15 13 6 2 3 2 4 4 3 1 2 2 2 2 2 6 6 0 3 3 4 11 12 5 7 10 9 10 14 16 18 15 14 14 13 12 11 11 12 12 12
34 33 33 34 34 37 40 45 47 46 48 45 37 36 32 20 12 12 10 6 2 8 13 16 16 10 0 10 12 10 12 14 18 26 26 17 9 8 13 18 22 25 23 16 6 7 16 11 4 1 3 2 2 4 4 4 2 1 1 3 2 2 6 7 2 6 5 4 9 10 5 5 6 8 12 14 16 18 16 15 15 14 14 13 12 12 12 11
35 34 35 36 37 40 44 48 47 47 48 41 35 33 21 10 8 10 11 12 10 14 14 12 10 6 1 6 6 4 6 8 13 20 21 19 17 11 14 17 16 19 17 11 6 7 13 10 2 3 3 2 3 3 1 3 4 1 2 4 3 3 4 6 4 5 6 3 5 9 5 1 3 8 11 13 16 16 15 15 16 15 15 14 12 11 11 11
34 35 36 37 41 43 46 49 47 49 46 37 34 25 9 5 8 11 14 15 14 13 9 6 8 4 4 6 4 4 4 6 9 8 9 16 21 16 14 10 7 12 9 5 7 7 8 6 2 2 3 3 4 5 3 6 6 2 1 3 4 4 4 4 5 4 3 4 5 10 8 4 3 8 13 14 16 15 14 15 16 15 13 13 11 10 11 12
33 36 37 40 44 46 49 48 48 49 41 34 31 16 4 4 5 8 11 11 8 6 5 2 6 2 5 5 3 4 3 3 5 6 5 8 16 20 16 7 6 9 7 4 4 5 3 2 3 2 3 5 4 6 7 7 5 4 3 3 4 4 4 6 6 3 1 3 5 8 10 8 3 7 13 14 16 16 15 16 15 14 14 13 12 12 12 12
33 36 38 43 45 48 49 47 49 45 34 33 25 7 6 5 1 1 3 4 3 2 0 2 6 2 3 5 4 6 8 7 8 8 7 6 11 17 13 7 8 10 7 3 3 5 4 1 3 5 6 7 7 8 9 4 6 7 6 4 4 4 5 6 6 5 2 2 6 7 10 10 5 8 12 13 15 15 13 12 12 12 12 12 12 12 12 14
36 36 40 44 46 49 49 48 49 37 28 32 22 6 6 7 3 3 6 7 5 7 7 6 8 6 8 6 2 4 9 7 6 4 5 9 13 12 6 4 6 5 5 6 4 4 6 4 7 8 6 7 8 8 7 5 5 5 4 3 5 5 7 5 4 7 2 3 6 8 11 12 8 10 12 13 13 13 12 12 12 12 12 13 14 14 15 16
41 41 43 45 47 49 48 49 42 26 26 28 17 7 4 4 4 4 8 11 10 10 13 14 13 14 15 11 3 3 6 4 5 5 5 9 15 12 4 5 6 4 6 8 5 2 5 8 10 8 7 8 8 8 8 7 6 6 5 4 5 6 7 6 4 7 2 2 6 5 7 10 8 8 9 11 14 15 15 15 15 16 15 13 14 16 16 13
42 43 45 45 48 49 49 48 31 19 27 23 12 7 4 3 5 7 6 9 11 10 15 17 14 17 19 21 19 6 2 5 8 9 8 8 10 9 6 7 9 7 6 6 5 3 5 9 9 9 8 8 7 8 9 8 7 6 5 4 6 5 4 6 5 5 3 3 6 4 6 8 6 7 9 12 15 15 16 18 19 19 17 15 16 16 15 12
42 44 46 46 49 49 49 40 21 20 32 23 8 4 4 7 11 9 4 6 11 9 12 14 13 16 15 17 18 10 7 8 7 10 10 13 7 6 8 9 11 8 7 8 8 7 6 7 9 11 9 9 7 6 9 7 6 5 5 5 6 4 1 4 4 4 3 4 5 3 3 5 2 5 8 12 12 9 11 15 14 14 16 17 18 16 15 15
43 44 45 48 49 50 48 31 16 25 35 20 3 3 8 17 17 11 3 4 8 6 10 14 12 11 12 10 12 16 10 7 7 9 12 16 6 4 8 10 11 9 8 12 12 10 7 5 7 12 10 11 8 6 8 6 4 5 6 7 7 4 4 4 4 4 4 3 3 0 3 6 2 6 8 9 10 9 9 11 10 11 13 14 13 13 14 15
44 44 45 48 48 51 44 20 14 31 33 11 4 5 20 25 20 12 3 2 6 5 5 9 6 6 8 8 13 15 6 5 10 9 10 17 11 6 6 6 7 10 12 12 11 10 9 4 7 12 10 10 10 7 7 7 5 5 7 10 9 5 4 2 2 4 4 4 4 2 2 6 3 7 9 8 10 12 10 12 14 13 13 12 11 13 14 14
43 43 46 47 47 51 36 10 17 34 23 5 6 22 30 27 23 12 1 1 5 5 2 3 2 5 7 7 9 9 4 5 11 11 8 14 16 7 4 5 3 10 12 9 5 4 6 6 7 10 9 10 10 9 8 9 6 6 6 9 8 6 6 4 2 0 1 4 5 2 3 5 4 5 9 7 11 16 13 14 16 13 13 14 13 13 14 14
42 43 46 46 47 45 22 7 24 26 8 9 24 33 31 28 24 8 1 3 4 3 3 0 1 5 6 6 10 9 4 3 3 10 12 15 15 6 6 8 4 7 7 4 3 3 7 10 8 9 9 9 9 9 8 10 7 6 5 9 8 7 7 6 6 4 4 4 6 2 4 3 5 6 8 9 11 13 14 15 15 14 15 16 15 15 15 15
42 44 45 45 46 35 14 13 23 14 9 22 32 32 31 29 17 2 1 3 4 1 3 1 0 4 2 4 11 7 3 1 3 6 11 17 15 5 7 11 9 10 9 8 8 4 9 13 13 13 9 8 8 6 9 11 8 5 6 7 7 7 6 6 6 5 3 2 7 5 5 4 6 6 4 7 10 12 15 18 16 16 17 17 17 17 16 16
43 44 44 45 43 30 17 15 14 14 24 31 31 32 30 21 7 2 2 2 4 1 1 1 1 1 3 3 8 6 4 2 2 2 7 13 11 4 5 9 9 9 10 12 10 4 6 12 15 14 10 8 7 6 11 13 10 5 6 3 1 2 3 4 6 4 2 3 9 7 6 5 7 5 2 5 9 12 14 16 16 16 18 17 17 17 17 15
44 44 44 43 37 28 22 17 14 22 31 31 30 31 22 8 1 3 2 4 2 2 1 2 2 2 3 4 4 7 5 4 3 2 6 7 5 2 1 3 6 5 6 9 9 5 2 4 9 9 9 10 8 6 9 13 10 5 5 2 3 2 3 2 2 3 2 6 10 9 8 7 7 5 5 5 8 13 13 12 13 14 15 16 16 16 17 16
44 44 44 39 31 23 15 14 21 29 31 30 30 23 9 1 2 3 5 3 2 3 4 4 3 4 2 1 3 4 5 5 2 4 5 4 5 4 2 4 4 4 4 5 8 8 5 1 5 5 7 9 7 5 6 8 8 6 5 4 2 4 4 2 2 2 5 8 8 8 8 7 9 6 5 7 10 14 15 14 15 17 18 17 16 17 17 17
44 44 43 35 26 17 9 14 26 31 30 28 22 11 1 0 1 4 4 3 3 2 3 2 3 4 4 3 4 5 4 3 3 5 6 6 7 8 7 7 6 5 6 7 5 5 6 4 3 3 5 9 8 5 4 3 6 6 5 6 4 2 2 3 2 2 6 8 5 7 7 6 10 6 6 10 11 14 15 16 17 19 20 19 18 18 17 16
43 43 39 28 18 14 14 21 27 28 29 24 12 4 3 2 4 5 5 3 1 3 3 2 5 6 4 3 3 4 3 3 4 5 6 5 7 9 7 6 8 7 4 6 5 3 3 5 4 4 3 8 11 8 5 4 6 8 6 6 6 4 4 5 4 2 5 7 5 5 6 4 7 5 10 14 13 14 16 16 17 19 21 22 21 20 18 17
42 40 34 22 12 15 21 25 25 25 24 16 5 2 2 5 4 2 3 3 1 4 4 4 7 6 3 2 3 3 1 2 1 3 6 5 5 8 6 4 7 6 4 4 5 5 6 6 7 10 5 7 12 10 8 6 5 7 6 6 5 5 6 5 4 4 4 6 4 1 4 5 4 5 10 14 14 13 14 15 16 17 18 19 18 17 16 16
40 37 32 18 10 19 26 25 27 23 15 7 3 0 5 5 3 1 2 4 2 4 8 8 6 3 3 3 3 6 2 2 6 3 4 6 5 6 6 6 7 5 5 5 3 4 9 8 6 9 7 10 13 9 8 8 5 5 5 6 6 6 6 3 4 6 3 3 3 2 4 5 5 5 6 9 11 12 13 15 15 16 16 15 14 13 13 14
39 36 31 17 12 23 28 27 29 20 6 3 2 3 4 2 2 1 2 4 3 5 10 8 3 2 4 3 3 7 5 3 7 5 1 3 3 1 3 5 6 7 6 6 4 3 6 7 3 4 5 10 13 10 9 8 5 3 5 7 6 5 7 4 4 3 2 3 4 2 3 5 4 6 6 6 8 10 12 13 15 16 17 15 13 11 12 14
36 32 23 14 15 25 29 30 28 13 1 3 2 4 2 1 1 2 4 5 5 5 5 4 3 2 3 3 3 7 7 5 6 5 2 1 2 5 5 3 2 3 3 3 5 4 4 5 3 6 8 10 9 10 10 9 8 6 6 8 2 5 4 4 3 3 3 5 5 1 3 5 3 5 5 5 8 10 11 12 14 16 15 15 13 12 13 15
29 23 13 11 20 28 32 31 20 4 3 2 3 4 2 1 3 5 5 7 6 4 1 0 2 2 3 2 2 6 7 4 5 5 3 1 2 5 6 5 6 6 7 7 4 3 3 4 5 7 12 7 4 8 7 6 7 5 6 7 5 3 4 3 3 5 5 5 5 3 4 5 6 5 3 7 10 11 11 11 12 14 14 14 14 14 15 15
20 12 5 11 25 31 34 24 7 2 2 2 3 3 2 3 6 7 8 9 5 3 2 2 2 2 3 2 3 5 5 3 4 3 2 2 1 4 8 5 7 10 11 6 1 2 2 3 6 6 8 6 5 6 6 6 7 3 3 5 4 3 4 5 4 4 4 4 4 3 4 5 6 6 6 9 12 12 12 11 12 14 15 14 15 15 14 13
12 3 3 16 29 33 30 13 3 3 2 1 2 2 4 5 6 8 8 8 4 3 3 3 3 3 3 4 4 3 2 3 4 2 1 3 2 3 9 8 7 12 13 5 1 1 1 4 5 4 2 5 4 6 9 9 8 5 5 6 4 2 2 3 3 2 4 4 4 3 5 6 5 5 9 11 12 13 13 12 12 13 15 15 15 15 14 13
6 0 4 19 30 32 24 6 3 4 1 1 4 4 6 7 7 8 7 6 4 3 3 4 5 4 3 4 4 2 1 2 2 1 2 3 4 2 7 8 7 10 9 4 4 3 1 2 4 3 2 3 3 7 13 14 12 9 8 8 8 5 3 4 4 3 3 5 4 4 6 9 5 5 8 9 10 11 12 12 11 11 13 13 13 15 15 12
3 1 9 21 29 27 14 5 3 4 1 4 6 6 8 8 7 8 6 6 5 3 3 4 4 3 3 3 2 1 2 1 2 2 0 3 5 2 6 10 9 8 5 3 2 2 1 1 3 4 3 4 6 7 11 15 15 12 9 8 8 6 5 6 7 4 3 3 2 3 5 9 6 7 9 9 10 10 10 10 10 11 12 12 13 15 13 11
2 5 14 21 28 20 5 5 5 4 2 6 7 7 8 6 7 9 6 6 5 3 4 3 2 3 2 2 2 3 2 1 1 2 2 4 4 3 8 12 10 8 5 3 3 3 3 1 3 3 3 3 6 6 5 5 9 10 9 8 8 8 8 7 6 4 4 4 3 3 7 8 5 6 8 7 7 7 8 9 10 10 9 9 12 13 11 12
3 4 8 17 25 15 4 4 5 4 5 8 8 8 7 5 7 9 7 7 5 4 4 3 3 3 3 3 3 3 3 2 3 4 4 2 2 3 10 13 10 7 4 4 5 4 3 1 1 1 3 4 4 5 5 3 3 5 6 8 10 11 11 7 3 4 3 7 8 6 8 6 4 3 5 6 5 6 8 7 8 9 8 7 8 9 10 10
4 1 4 10 16 10 5 4 3 3 6 8 8 8 7 5 6 8 9 7 6 6 4 4 5 5 5 5 3 4 5 3 3 3 3 3 1 4 9 13 8 4 4 8 9 3 1 1 1 1 6 7 4 5 4 2 3 4 4 9 13 14 15 10 4 5 6 7 9 7 7 6 5 3 5 7 5 7 10 7 5 7 8 8 8 7 7 7
3 2 3 5 5 5 3 3 4 3 5 7 7 5 6 7 6 7 8 7 9 11 7 5 6 6 7 8 5 4 5 5 3 2 2 4 3 3 8 10 6 5 7 11 12 4 0 1 0 2 4 3 2 4 4 4 4 5 4 9 12 14 16 12 8 9 7 5 7 9 6 4 5 4 7 8 6 8 9 7 6 8 9 8 8 6 6 6
1 2 3 4 3 3 3 2 4 4 4 6 4 3 5 7 6 7 6 5 9 10 7 4 7 9 7 9 6 3 4 4 3 2 3 4 3 4 7 7 4 7 10 10 8 3 3 2 2 1 2 3 4 10 12 8 6 7 8 8 12 13 15 16 15 10 8 6 11 10 8 7 7 7 8 8 7 7 9 9 9 8 7 6 6 5 5 6
1 1 2 2 2 3 3 4 6 6 6 6 3 3 6 7 6 6 5 5 7 8 5 3 7 10 8 8 5 3 4 4 2 1 3 3 4 6 7 5 2 8 10 7 5 2 3 2 3 3 6 7 6 10 12 9 6 8 11 12 12 14 17 20 18 11 10 11 15 9 10 10 8 7 9 10 9 10 10 9 7 5 6 6 6 7 7 8
1 2 2 1 1 2 4 7 9 7 6 6 3 2 6 8 8 7 5 5 7 6 5 5 7 10 9 7 4 2 2 3 3 2 2 3 5 4 4 4 2 6 9 6 4 1 2 2 3 3 6 8 8 9 9 7 7 8 11 13 14 16 19 21 19 14 14 16 14 7 10 11 9 8 10 10 8 7 5 3 3 4 7 7 7 7 8 8
1 1 2 2 3 3 4 5 5 5 5 5 3 2 4 7 8 8 7 5 6 5 5 7 9 11 9 6 4 4 5 4 4 4 2 3 4 2 1 2 2 5 7 4 3 3 1 2 4 3 5 7 8 8 8 9 10 11 12 12 14 18 20 20 17 13 12 13 12 8 9 9 7 6 9 9 4 2 4 4 5 7 7 7 7 8 9 9
4 4 3 3 4 4 3 3 2 4 4 2 2 3 5 7 8 10 9 6 5 4 5 9 11 10 8 7 6 8 9 7 6 7 5 4 4 3 2 3 3 6 5 2 3 3 1 2 2 3 3 5 6 7 11 15 13 11 14 15 15 15 15 14 12 10 11 11 10 11 9 8 7 6 8 9 5 4 8 8 5 6 6 7 8 9 10 9
4 4 2 2 3 3 3 2 2 3 3 2 3 6 7 8 9 9 7 3 2 3 5 8 9 7 6 8 8 7 7 8 9 10 8 7 8 6 6 7 7 5 2 2 3 2 2 2 1 2 1 4 7 8 10 12 10 10 13 12 12 12 10 10 9 10 13 12 10 12 10 8 7 7 6 9 9 8 9 6 4 5 6 6 8 9 9 9
Wind_Direction
351 350 347 345 344 343 342 340 339 340 343 344 342 341 340 341 339 337 336 334 333 333 332 330 329 328 324 323 324 320 318 316 309 299 247 261 266 259 251 248 236 196 195 177 154 150 152 158 156 152 152 162 165 156 183 218 194 170 156 165 233 232 238 211 213 190 189 234 157 167 161 143 150 160 139 99 90 126 135 98 101 70 61 116 130 137 145 151
350 349 346 344 343 342 341 340 341 345 344 341 339 339 340 339 337 335 333 332 331 330 330 330 329 326 322 323 322 320 321 315 306 278 261 274 275 266 255 242 231 195 181 164 157 156 158 165 160 155 149 162 176 156 170 185 188 203 166 180 229 218 224 211 208 197 105 224 167 167 167 156 156 158 156 134 139 143 131 105 96 88 95 115 130 138 147 155
348 347 345 344 342 342 342 343 343 341 338 337 339 339 339 337 336 334 330 330 329 328 328 326 327 325 321 321 322 322 322 319 305 268 273 301 294 269 249 230 217 198 189 173 168 166 162 155 155 154 145 168 179 168 175 175 180 206 196 219 242 231 252 261 240 249 287 170 158 162 168 159 153 152 159 145 150 166 163 151 136 137 141 136 140 144 151 158
347 346 345 343 342 343 342 340 337 334 334 336 338 338 337 335 334 331 329 329 326 326 324 323 326 322 319 321 321 320 322 321 283 252 276 353 1 331 237 216 205 194 192 181 173 167 159 150 153 158 152 180 198 188 194 191 172 183 200 218 247 228 250 253 224 247 262 159 151 157 148 154 161 157 158 142 144 201 210 187 169 160 155 148 150 152 156 161
347 345 344 342 341 341 339 336 335 335 336 337 337 336 336 334 332 330 327 325 323 323 321 320 322 320 319 320 318 318 333 329 284 259 257 318 330 338 260 202 191 186 183 172 166 158 155 150 150 160 165 187 189 202 216 208 204 223 216 228 256 261 263 254 171 192 240 153 142 153 165 168 160 165 167 158 164 209 211 202 178 158 156 156 157 156 159 164
346 345 343 341 340 339 337 336 336 336 338 338 337 335 334 332 330 328 325 322 319 318 318 317 319 318 315 317 325 319 227 263 298 282 278 310 312 320 268 186 178 178 173 161 152 148 150 150 153 168 178 193 200 206 210 200 208 252 245 234 242 239 254 266 225 174 187 158 166 170 178 158 159 187 180 178 190 222 197 184 168 157 156 155 155 158 162 167
345 344 342 340 339 338 337 336 335 336 337 337 336 335 333 330 329 326 322 319 316 314 315 314 315 314 309 320 71 290 119 252 273 270 281 301 301 308 179 171 170 169 165 151 144 148 150 157 168 173 172 196 218 214 227 206 202 232 254 251 248 241 248 264 274 232 177 186 202 166 151 161 181 187 172 197 216 39 123 146 150 152 150 150 155 162 166 168
345 344 342 341 339 338 336 334 335 336 336 337 336 334 332 330 327 323 320 317 314 312 310 309 309 306 300 317 163 289 207 248 266 277 289 291 289 257 152 161 167 165 159 152 152 154 151 163 175 167 178 207 210 193 204 224 216 229 246 258 263 256 256 265 274 271 230 202 188 151 162 186 193 166 171 204 210 100 124 131 141 148 150 156 161 164 168 169
346 345 343 342 340 339 337 336 337 336 337 338 336 334 331 329 325 321 320 316 311 306 303 302 298 291 274 258 121 281 254 253 269 288 290 262 202 154 152 159 170 166 157 160 159 155 155 168 180 167 175 210 227 214 181 189 225 225 238 257 259 260 261 267 272 270 257 212 158 163 187 199 187 139 186 202 159 126 131 133 144 152 159 163 166 167 169 171
345 344 343 342 341 339 339 339 339 339 340 338 336 335 331 327 324 321 317 311 305 297 294 289 279 251 214 205 155 249 255 241 138 70 58 184 159 154 156 163 172 167 158 163 161 160 160 166 179 171 149 207 228 241 214 199 235 233 242 261 256 261 265 263 265 264 268 223 172 181 202 198 175 165 211 187 142 139 132 142 151 158 168 167 170 172 171 174
343 343 342 342 341 340 340 340 340 341 341 338 337 334 330 328 324 319 312 306 297 289 283 266 236 193 184 171 175 232 236 170 136 88 76 140 156 159 166 171 174 170 159 158 168 175 175 168 168 159 187 218 210 224 245 224 248 275 273 283 268 270 272 255 257 261 271 238 189 181 197 180 169 208 207 157 148 147 141 153 159 164 175 171 172 173 173 177
343 342 342 342 341 340 340 340 342 342 340 339 337 333 331 329 322 315 310 305 294 282 261 228 196 177 161 120 226 233 223 186 170 115 103 126 146 167 181 180 181 177 164 157 181 186 182 172 162 163 196 165 146 213 256 216 222 277 270 284 283 301 289 257 249 241 209 222 180 147 133 169 194 213 176 147 153 149 149 159 164 169 175 175 175 173 175 177
342 342 342 341 341 340 339 341 342 342 341 339 336 334 333 328 321 316 314 308 294 268 223 199 181 169 154 183 240 241 238 228 216 204 203 218 250 243 220 198 191 188 178 172 187 193 188 173 168 181 192 144 161 228 280 205 161 295 257 235 282 329 302 268 240 211 191 194 157 140 174 217 210 208 149 151 157 148 154 164 168 172 175 179 178 176 179 179
342 343 342 342 341 339 339 341 343 342 341 338 335 335 334 329 323 324 324 314 295 223 173 167 164 157 160 252 257 263 258 253 249 244 247 252 249 229 221 208 199 197 194 187 187 198 193 176 170 184 234 171 227 302 330 345 65 317 301 221 266 294 274 284 332 160 174 198 163 157 230 231 213 202 162 162 159 155 162 169 172 174 176 181 182 181 182 183
342 343 342 342 341 341 343 343 343 343 341 338 336 337 334 331 340 353 1 8 57 146 140 140 154 149 145 274 273 275 256 252 249 242 245 239 195 188 205 199 199 200 202 198 170 182 186 173 145 168 279 261 259 305 322 331 343 26 290 286 300 214 257 291 259 173 177 213 173 170 230 249 214 192 171 168 164 163 166 172 176 177 179 182 185 185 184 186
343 344 344 344 343 343 345 344 344 343 340 338 337 338 336 346 23 40 51 60 90 127 129 135 157 157 256 279 285 272 230 227 244 244 243 229 207 199 188 179 189 195 196 194 151 131 158 156 130 184 224 258 184 195 288 304 302 9 182 249 266 228 271 305 291 220 196 181 178 197 219 286 217 182 170 172 172 169 168 175 179 180 182 182 186 188 185 184
343 344 344 345 345 345 345 344 345 342 340 340 339 339 345 28 62 68 68 75 92 109 107 140 161 160 265 272 282 262 239 226 238 247 241 229 220 199 165 153 171 177 164 149 153 132 133 148 167 178 191 206 170 150 184 237 244 286 179 227 253 237 251 280 303 298 196 167 195 219 225 244 237 173 169 176 176 172 174 180 182 182 183 182 185 190 190 188
343 344 345 346 346 346 345 344 345 343 340 342 342 344 18 60 92 74 73 82 82 95 71 112 157 165 266 262 280 277 287 273 272 277 261 234 213 192 170 148 136 139 114 89 155 150 147 178 161 170 201 196 179 168 199 218 192 198 208 221 263 250 238 248 271 308 146 209 214 217 231 246 257 173 175 179 177 178 183 183 182 182 183 184 184 189 195 195
344 345 347 347 347 346 345 345 345 343 342 347 349 3 34 18 190 26 44 47 42 173 242 171 176 204 264 246 260 286 311 317 306 283 242 204 190 187 177 146 121 125 125 135 182 169 166 165 171 201 213 193 193 197 204 182 141 171 184 190 226 241 251 243 252 267 230 227 231 215 229 234 208 185 186 181 179 184 186 180 179 184 185 187 189 191 194 201
346 346 346 347 346 345 345 345 344 344 349 352 356 20 26 7 327 310 329 316 263 236 264 239 212 251 280 281 280 313 315 300 277 268 208 180 160 159 169 128 107 128 149 152 175 176 158 184 213 209 200 182 193 203 199 181 175 196 186 201 226 237 262 255 267 279 225 179 242 223 227 232 206 192 191 181 181 186 185 179 182 187 189 191 193 193 196 205
349 348 348 347 346 345 346 345 343 348 355 358 12 35 36 22 355 317 324 299 258 240 253 244 227 240 256 265 269 31 358 310 266 272 233 178 146 141 181 163 143 183 184 154 147 129 157 203 221 203 184 178 185 187 184 191 206 223 223 243 253 239 258 263 264 282 251 165 266 250 232 241 218 198 192 179 183 191 187 184 188 191 192 195 196 197 199 203
349 349 348 347 346 346 345 344 346 352 356 7 39 57 85 53 337 294 307 295 271 241 240 246 239 244 247 251 255 261 357 286 278 272 231 178 160 168 182 171 173 189 177 152 139 141 196 222 211 186 178 172 178 176 174 189 195 209 218 226 251 243 269 280 260 276 253 202 272 262 226 243 223 186 190 192 194 197 193 190 191 190 189 194 197 200 199 193
349 349 348 347 346 346 346 345 348 351 354 359 4 51 67 2 344 323 294 277 281 245 228 239 232 240 242 244 243 215 211 230 242 263 205 170 187 186 165 175 184 179 167 178 186 180 208 236 193 172 171 167 179 179 168 181 193 197 197 204 239 229 226 275 278 302 253 221 261 251 237 267 227 161 194 207 206 208 207 205 201 192 193 198 198 198 194 190
347 348 348 347 347 347 346 346 350 350 349 345 309 93 9 344 351 350 299 254 284 249 219 226 218 231 235 225 195 182 206 208 194 244 195 167 171 154 169 181 173 180 191 191 198 200 223 256 174 161 169 176 189 190 167 176 216 214 200 209 232 215 206 245 284 316 306 288 277 202 332 311 204 181 205 206 204 214 216 213 214 206 204 207 204 203 199 195
345 347 346 347 347 346 346 350 353 345 340 345 135 359 341 338 347 349 320 267 287 269 229 222 215 227 213 181 169 172 191 220 207 220 179 169 171 145 170 177 164 193 198 187 197 216 232 241 149 157 171 178 189 205 184 176 211 241 219 215 217 202 208 238 328 340 342 319 279 166 295 296 246 209 214 192 194 208 207 206 211 208 205 208 208 208 206 202
343 346 345 346 347 346 350 358 339 339 336 347 345 332 331 333 339 339 295 336 289 263 201 190 192 192 174 151 161 145 118 247 219 197 180 179 178 158 159 166 178 199 187 177 197 226 213 178 148 166 175 174 189 215 199 170 193 244 213 193 198 196 203 201 165 105 262 261 274 171 187 270 303 253 227 196 197 206 203 209 212 206 204 206 208 207 205 203
342 345 344 345 347 348 354 330 329 340 347 322 326 328 327 330 336 330 213 350 288 230 162 116 6 175 171 166 167 144 151 261 173 181 196 183 175 162 170 174 180 190 162 141 214 217 166 166 170 172 170 180 201 216 187 158 187 231 160 146 164 184 202 194 170 193 223 245 281 255 169 243 288 258 227 197 202 213 210 215 214 206 209 208 208 209 206 204
341 344 345 344 346 348 344 316 325 334 327 323 325 326 325 329 333 303 114 343 269 219 136 230 139 152 126 168 179 180 223 213 91 199 194 175 176 164 185 193 181 178 163 163 205 198 154 175 188 181 182 198 202 191 159 161 202 210 133 136 157 174 188 169 164 206 219 223 268 248 163 219 266 266 242 185 197 219 217 219 216 208 210 209 208 210 208 208
340 343 345 343 345 348 342 323 317 320 329 331 328 325 324 325 326 123 83 267 255 336 115 184 130 130 47 138 206 261 309 28 41 217 166 175 192 176 192 196 166 170 183 191 206 194 167 191 189 183 197 209 195 167 157 176 211 185 133 141 111 159 162 140 167 198 158 200 249 240 174 209 264 272 241 172 195 218 220 222 219 212 213 211 209 210 209 209
340 342 344 344 343 345 343 331 325 333 336 335 329 326 325 319 106 109 189 236 274 357 39 60 37 330 45 120 242 281 284 301 350 106 150 178 197 183 163 126 122 147 192 216 220 219 242 188 177 184 202 203 191 176 175 187 192 135 129 212 287 322 19 67 144 133 165 239 245 230 187 195 256 251 196 181 198 207 213 222 224 221 221 216 211 210 209 208
339 341 343 344 342 341 338 328 338 344 340 337 334 330 328 4 94 159 211 247 327 349 16 24 20 2 10 201 266 266 248 278 338 135 169 176 166 176 151 108 114 137 173 230 228 230 269 122 167 210 199 183 172 185 204 192 173 133 125 162 225 309 341 342 9 91 220 245 239 219 181 184 238 241 194 213 210 200 205 212 214 217 220 218 214 210 208 208
338 341 342 345 345 342 330 327 341 345 342 340 338 338 39 143 242 209 239 325 345 347 16 340 331 355 320 270 244 221 215 239 209 169 178 185 177 183 184 175 172 165 192 216 205 213 241 234 238 262 202 176 162 181 216 189 170 161 136 135 160 262 275 228 234 182 230 248 236 197 165 194 243 236 199 218 217 205 208 209 209 211 215 217 215 211 209 205
337 340 344 352 358 351 345 343 344 343 341 340 336 2 87 189 232 216 248 306 9 353 355 284 307 312 283 292 283 244 217 213 201 180 186 192 185 192 198 187 173 163 177 195 179 173 244 279 263 238 228 181 170 175 193 192 178 173 164 154 167 190 201 214 232 237 244 254 244 185 166 226 272 248 204 209 213 208 208 213 212 210 213 216 214 210 206 202
337 341 345 354 5 358 355 349 345 340 336 339 352 46 136 212 248 238 258 291 13 5 351 318 311 301 258 274 327 1 4 279 304 171 179 168 180 200 202 201 188 161 109 156 181 177 203 255 224 204 207 172 181 193 177 155 163 179 160 138 169 191 182 194 208 210 243 261 269 175 171 209 239 235 210 202 207 206 205 214 215 216 218 218 218 212 204 202
336 341 345 346 351 356 355 347 341 340 333 342 30 168 204 217 275 6 317 314 357 3 336 316 303 309 313 295 356 23 28 338 358 346 190 165 177 196 192 204 203 168 130 173 201 178 201 236 231 208 193 164 183 199 157 132 159 189 127 128 203 195 159 190 202 176 192 280 276 210 208 221 220 259 250 212 209 204 205 214 215 221 226 222 225 214 201 204
337 342 345 342 342 349 348 341 338 337 332 39 61 232 238 242 278 12 354 345 356 340 328 320 322 33 337 319 2 4 355 355 2 356 273 156 137 150 205 206 201 188 176 188 203 163 193 233 225 159 187 190 187 180 166 165 174 167 149 183 208 148 139 213 242 184 153 262 268 217 247 285 278 279 271 219 213 208 207 214 213 220 225 223 225 213 201 205
338 341 338 328 339 346 342 337 336 332 97 92 178 235 292 309 300 18 7 353 326 312 337 346 343 20 352 337 355 353 347 345 3 10 329 223 63 0 310 296 318 232 242 266 237 187 174 245 237 151 196 225 189 165 182 181 150 135 184 196 129 81 138 187 236 257 226 246 279 252 232 265 254 266 263 191 206 219 212 212 214 220 223 225 226 217 208 207
336 333 317 314 339 343 338 336 332 308 132 98 237 261 308 293 335 0 357 345 317 293 0 216 283 18 29 352 338 348 353 355 1 2 331 268 47 10 347 326 340 341 329 326 287 214 181 251 268 190 192 208 143 153 193 204 179 168 179 173 135 143 194 170 192 226 215 234 279 286 255 239 212 235 236 189 206 222 218 213 214 219 220 222 226 223 216 209
339 334 297 335 346 343 339 341 340 157 97 102 226 266 301 299 327 342 345 345 325 292 298 231 252 9 5 342 347 349 356 356 340 338 347 0 39 34 23 343 314 331 328 325 220 229 198 211 265 243 192 166 134 167 193 211 225 210 130 160 164 170 183 174 184 188 183 225 256 277 272 248 222 206 187 199 213 215 214 212 211 215 216 216 221 223 218 207
350 333 271 341 348 345 343 351 92 67 33 176 233 299 334 325 320 331 344 352 339 292 308 307 322 342 327 331 335 323 336 342 335 316 303 6 82 58 17 359 322 323 321 316 145 286 268 198 242 279 197 156 159 197 192 190 208 203 177 192 192 171 164 176 206 177 159 195 211 228 256 257 248 200 182 199 215 215 213 211 213 216 215 215 218 222 219 209
347 297 294 340 350 346 345 9 77 14 22 340 346 332 329 325 315 322 337 358 351 269 268 291 296 291 288 314 316 298 349 338 315 283 271 5 52 47 355 351 327 317 322 347 28 11 357 213 227 238 211 192 204 205 194 192 196 190 196 202 192 185 138 152 235 242 163 188 185 188 252 262 245 190 188 199 210 219 215 209 217 224 220 217 219 224 222 211
350 321 298 334 350 344 348 62 34 354 44 354 344 319 317 323 321 325 337 355 351 298 291 290 272 281 284 287 300 343 11 313 267 293 41 55 56 41 343 344 331 324 339 5 11 7 355 253 240 237 221 214 230 220 205 206 201 193 200 197 184 182 154 175 224 219 174 217 154 135 251 267 245 190 192 199 205 216 215 205 212 225 223 217 219 227 224 213
356 305 298 335 352 345 359 74 14 3 10 338 332 315 315 330 336 338 343 349 350 339 332 319 310 355 348 307 335 357 351 351 349 7 64 78 78 53 1 351 344 349 9 13 348 333 328 280 236 277 297 260 266 285 288 241 204 201 212 192 179 192 190 200 211 173 181 211 157 177 245 266 270 208 200 213 220 226 228 212 211 225 230 219 219 226 223 216
321 290 291 341 356 358 53 66 6 352 335 333 334 322 322 347 350 343 335 333 344 346 335 323 326 350 334 309 341 8 356 23 49 39 46 49 127 71 15 355 348 360 18 14 355 335 324 318 192 298 258 237 265 288 300 300 209 213 223 202 198 196 192 205 181 136 215 203 170 198 237 244 281 263 225 247 262 256 251 233 217 227 238 233 227 228 227 221
315 283 255 327 354 15 64 72 33 352 330 333 330 322 330 347 347 340 327 325 352 0 336 305 309 329 348 354 12 20 18 50 54 28 34 0 345 71 13 344 338 344 343 358 359 337 249 289 106 159 220 217 219 223 225 273 252 238 214 203 207 200 193 201 193 187 227 205 176 204 233 249 292 288 232 240 249 255 259 260 245 237 239 240 235 229 222 212
331 337 297 319 357 38 57 72 56 8 331 332 326 319 333 335 336 343 336 342 5 359 331 310 340 2 11 11 9 1 11 28 7 347 24 0 348 30 352 329 319 323 339 3 2 347 139 332 202 162 230 237 291 268 269 326 294 273 250 205 205 208 202 200 211 213 202 178 203 217 200 216 264 236 218 233 231 240 253 257 251 241 236 237 238 235 222 211
326 327 338 336 336 5 14 37 36 3 325 327 317 294 322 328 338 350 347 355 2 349 322 329 21 27 20 9 0 340 354 357 336 354 34 11 344 340 328 304 302 346 360 8 351 348 72 340 307 52 320 301 314 292 289 299 278 273 278 236 208 207 204 207 219 206 146 166 233 228 174 186 238 226 215 226 224 234 247 243 241 243 239 243 258 263 245 229
335 318 346 353 320 343 349 332 338 331 315 317 293 275 320 334 343 348 346 345 346 344 329 337 14 16 13 9 351 316 344 346 330 34 31 6 345 343 334 308 327 8 11 4 335 21 109 251 280 15 332 307 295 283 281 283 266 255 264 254 229 211 205 213 221 196 160 203 236 223 172 189 229 234 228 226 214 218 228 227 232 247 245 242 247 247 237 225
331 277 297 353 311 298 299 297 306 311 316 325 313 309 337 338 335 337 341 336 327 328 331 323 340 352 354 360 349 311 327 339 333 354 10 354 347 350 336 312 326 14 11 358 330 0 129 255 297 341 327 313 301 284 279 294 296 277 266 258 244 229 217 217 219 202 197 224 236 207 180 197 216 219 225 228 217 215 225 206 198 234 248 252 255 253 248 238
301 291 307 319 286 271 270 278 296 309 318 322 307 320 342 331 328 331 330 317 301 312 339 334 332 335 331 331 326 282 276 286 290 290 320 350 338 321 286 287 306 356 358 345 312 317 327 294 308 347 343 313 301 306 313 312 304 289 276 262 247 239 231 225 221 205 206 229 237 216 198 215 235 232 233 245 259 281 269 247 226 237 252 263 266 260 251 243
260 279 290 297 298 296 285 279 301 306 306 306 303 338 337 324 324 326 316 283 253 282 334 330 326 327 316 308 297 280 283 291 282 276 283 284 270 265 281 283 311 341 342 307 302 319 309 288 322 26 3 296 298 328 324 318 313 289 268 257 245 240 238 235 227 206 199 209 224 231 225 228 247 248 249 263 279 265 253 253 258 265 263 250 245 248 249 245
269 279 266 263 292 295 290 295 297 289 289 297 318 327 320 310 315 320 313 284 247 293 317 314 312 314 306 301 296 292 301 304 293 288 282 260 245 247 255 256 262 270 260 280 309 278 216 244 311 18 348 288 296 314 319 323 316 274 255 248 236 235 245 253 245 218 201 193 204 227 227 213 212 209 226 253 253 241 242 242 242 264 278 270 254 248 250 254